Regional Weather Roundup
Issued by NWS Huntsville, AL

Home | Current Version | Previous Version | Text Only | Print | Product List | Glossary On
Versions: 1 2 3 4 5 6 7 8 9 10 11 12 13 14 15 16 17 18 19 20 21 22 23 24 25 26 27 28 29 30 31 32 33 34 35 36 37 38 39 40 41 42 43 44 45 46 47 48 49 50
000
ASUS44 KHUN 311510
RWRHUN

WEATHER ROUNDUP FOR THE TENNESSEE VALLEY
NATIONAL WEATHER SERVICE HUNTSVILLE AL
1000 AM CDT TUE MAY 31 2016

ALZ001>004-311600-
NORTHWEST ALABAMA

CITY           SKY/WX    TMP DP  RH WIND       PRES   REMARKS
COURTLAND HCN    N/A     81 N/A N/A CALM        N/A
RUSSELLVILLE     N/A     82 N/A N/A MISG        N/A
SHOALS AIRPORT SUNNY     84  60  44 VRB3      29.98F
SHOALS TVA RES   N/A     81 N/A N/A MISG        N/A
$$

ALZ005>007-016-311600-
NORTH CENTRAL ALABAMA

CITY           SKY/WX    TMP DP  RH WIND       PRES   REMARKS
CULLMAN AG STN   N/A     82 N/A N/A CALM        N/A
DECATUR AP     SUNNY     82  62  50 CALM      29.98F
HUNTSVILLE AP  CLOUDY    83  60  45 VRB3      29.98S
HUN NWS/UAH      N/A     83  61  47 S1          N/A
MERIDIANVILLE  PTSUNNY   79  55  44 CALM      29.99S
REDSTONE ARSN  CLOUDY    80  65  59 VRB3      29.97F
VINEMONT AP    FAIR      83  64  52 E3        30.01S
$$

ALZ008>010-311600-
NORTHEAST ALABAMA

CITY           SKY/WX    TMP DP  RH WIND       PRES   REMARKS
FORT PAYNE     SUNNY     82  57  42 E6        29.98F
SCOTTSBORO AP  SUNNY     81  64  57 CALM      29.99S
SCOTTSBORO HCN   N/A     79 N/A N/A MISG        N/A
$$

TNZ076-096-097-311600-
SOUTHEASTERN MIDDLE TENNESSEE

CITY           SKY/WX    TMP DP  RH WIND       PRES   REMARKS
TULLAHOMA      SUNNY     81  63  54 E5        30.01S
WINCHESTER     SUNNY     82  64  54 CALM      29.99F
$$

...SURROUNDING SITES...

CITY           SKY/WX    TMP DP  RH WIND       PRES   REMARKS
ATLANTA        PTSUNNY   83  64  52 E8        29.99F
ANNISTON       SUNNY     83  65  54 E6        29.98S
BIRMINGHAM     MOSUNNY   86  64  47 SE6       29.99F
CHATTANOOGA    PTSUNNY   83  63  50 N6        29.99F
DALTON         SUNNY     79  64  61 CALM      30.00S
GADSDEN        SUNNY     83  66  56 E6        29.98F
GOLDEN TRNGL   PTSUNNY   82  66  57 N12       29.99R
HALEYVILLE     FAIR      83  65  54 VRB3      30.00F
JACKSON TN     CLOUDY    74  67  78 NW6       29.99F
MEMPHIS        CLOUDY    74  68  81 S7        29.98F
NASHVILLE      CLOUDY    81  64  56 CALM      30.00S
OXFORD MS      FAIR      68  64  88 CALM      30.01S
ROME           SUNNY     81  64  56 VRB6      29.98F
SAVANNAH       MOSUNNY   79  64  61 VRB5      29.98F
TUPELO         LGT RAIN  69  65  86 E7        30.00R FOG
TUSCALOOSA     SUNNY     86  66  51 CALM      29.96S
$$

...GULF COAST WEATHER...

CITY           SKY/WX    TMP DP  RH WIND       PRES   REMARKS
GULFPORT       SUNNY     84  70  62 CALM      29.95F
PASCAGOULA     SUNNY     84  71  65 NE6       29.96S
MOBILE         PTSUNNY   85  70  60 NE6       29.97S
GULF SHORES    SUNNY     83  73  70 CALM      29.96S
PENSACOLA      PTSUNNY   84  71  65 NW5       29.95F
DESTIN         SUNNY     85  75  72 SW5       29.96S HX  93
PANAMA CITY    PTSUNNY   84  75  74 W10       29.97R HX  92
APPALACHICOLA  MOSUNNY   85  76  74 SW8       29.97R HX  94
$$




USA.gov is the U.S. government's official web portal to all federal, state and local government web resources and services.